KC5KAW Weather Reports


time (UTC)temp
C
wind
direction
speed
KPH
gust
KPH
rain 1hr
cm
rain 24hr
cm
rain mn
cm
humidity
%
barometer
mb
20220525135055 18 15 0.0 4.8 0.00 0.20 0.20 99 1007.7
20220525134547 17 51 0.0 6.4 0.00 0.20 0.20 99 1007.7
20220525134040 17 97 1.6 9.7 0.00 0.20 0.20 99 1007.7
20220525133534 17 47 3.2 9.7 0.00 0.20 0.20 99 1007.8
20220525133012 17 40 3.2 22.5 0.00 0.20 0.20 99 1008.5
20220525132456 17 355 4.8 22.5 0.00 0.20 0.20 99 1008.8
20220525131945 17 64 3.2 16.1 0.00 0.20 0.20 99 1005.4
20220525131438 17 135 6.4 11.3 0.00 0.20 0.20 99 1006.6
20220525130930 17 83 1.6 6.4 0.00 0.20 0.20 99 1007.1
20220525130424 17 169 3.2 6.4 0.00 0.20 0.20 99 1008.0
20220525125913 17 33 3.2 9.7 0.00 0.20 0.20 99 1008.0
20220525125405 17 225 1.6 9.7 0.00 0.20 0.20 99 1008.1
20220525124857 17 177 1.6 9.7 0.00 0.20 0.20 99 1008.0
20220525124349 17 102 0.0 11.3 0.00 0.20 0.20 99 1007.9
20220525123842 17 204 4.8 11.3 0.00 0.20 0.20 99 1008.6
20220525123324 17 218 3.2 9.7 0.00 0.20 0.20 99 1008.7
20220525122815 17 109 3.2 9.7 0.00 0.20 0.20 99 1008.6
20220525122306 17 95 0.0 6.4 0.00 0.20 0.20 99 1008.1
20220525121759 17 106 3.2 9.7 0.00 0.20 0.20 99 1007.7
20220525121250 17 151 0.0 9.7 0.00 0.20 0.20 99 1007.5
20220525120743 17 310 4.8 9.7 0.00 0.20 0.20 99 1007.7
20220525120234 17 224 3.2 6.4 0.00 0.20 0.20 99 1007.4
20220525115730 17 118 0.0 6.4 0.00 0.20 0.20 99 1007.1
20220525115220 17 95 3.2 4.8 0.00 0.20 0.20 99 1007.2
20220525114711 17 106 1.6 14.5 0.00 0.20 0.20 99 1007.1
20220525114203 17 202 3.2 14.5 0.00 0.20 0.20 99 1006.6
20220525113657 17 82 3.2 11.3 0.00 0.20 0.20 99 1006.6
20220525113146 17 198 1.6 11.3 0.00 0.20 0.20 99 1006.2
20220525112628 17 116 4.8 11.3 0.00 0.20 0.20 99 1006.4
20220525112111 17 85 0.0 11.3 0.00 0.20 0.20 99 1006.3
20220525111601 17 106 3.2 12.9 0.00 0.20 0.20 99 1006.2
20220525111052 17 150 8.0 12.9 0.00 0.20 0.20 99 1006.1
20220525110547 17 91 3.2 9.7 0.00 0.20 0.20 99 1006.3
20220525110048 17 97 6.4 9.7 0.00 0.20 0.20 99 1006.6
20220525105518 17 90 0.0 9.7 0.00 0.20 0.20 99 1006.6
20220525105002 17 70 3.2 9.7 0.00 0.20 0.20 99 1006.4
20220525104450 17 81 3.2 14.5 0.00 0.20 0.20 99 1007.2
20220525103944 17 105 3.2 14.5 0.00 0.20 0.20 99 1007.9
20220525103436 17 129 4.8 9.7 0.00 0.20 0.20 99 1008.3
20220525102926 17 97 3.2 11.3 0.00 0.20 0.20 99 1008.1
20220525102419 17 158 4.8 11.3 0.00 0.20 0.20 99 1008.3
20220525101910 17 143 8.0 11.3 0.00 0.20 0.20 99 1008.3
20220525101402 17 73 3.2 9.7 0.00 0.20 0.20 99 1008.7
20220525100857 17 90 1.6 4.8 0.00 0.20 0.20 99 1009.1
20220525100347 17 143 4.8 9.7 0.00 0.20 0.20 99 1009.3
20220525095829 17 80 0.0 9.7 0.00 0.20 0.20 99 1009.6
20220525095311 17 73 1.6 6.4 0.00 0.20 0.20 99 1009.8
20220525094803 17 68 1.6 4.8 0.00 0.20 0.20 99 1010.3
20220525094255 17 57 3.2 4.8 0.00 0.20 0.20 99 1011.1
20220525093747 17 50 3.2 14.5 0.00 0.20 0.20 99 1011.3
20220525093239 17 89 0.0 14.5 0.00 0.20 0.20 99 1011.2
20220525092717 17 57 1.6 11.3 0.00 0.20 0.20 99 1011.1
20220525092158 17 78 1.6 11.3 0.00 0.20 0.20 99 1011.1
20220525091651 17 34 1.6 11.3 0.00 0.20 0.20 99 1011.0
20220525091145 17 64 3.2 12.9 0.00 0.20 0.20 99 1011.2
20220525090637 17 340 6.4 12.9 0.03 0.20 0.20 99 1010.9
20220525090127 17 13 6.4 12.9 0.15 0.20 0.20 99 1010.8
20220525085619 17 353 6.4 17.7 0.18 0.20 0.20 99 1010.8
20220525085114 17 105 1.6 17.7 0.20 0.20 0.20 99 1010.1
20220525084603 17 59 4.8 22.5 0.20 0.20 0.20 99 1009.6
20220525084058 17 60 4.8 22.5 0.20 0.20 0.20 99 1009.5
20220525083546 17 67 11.3 30.6 0.20 0.20 0.20 99 1009.6
20220525083028 17 357 8.0 30.6 0.20 0.20 0.20 99 1010.3
20220525082511 17 182 6.4 33.8 0.20 0.20 0.20 99 1010.1
20220525082000 17 333 8.0 33.8 0.20 0.20 0.20 99 1010.5
20220525081452 17 355 8.0 35.4 0.20 0.20 0.20 99 1010.7
20220525080948 17 348 16.1 35.4 0.20 0.20 0.20 99 1010.6
20220525080436 18 13 6.4 37.0 0.08 0.08 0.08 98 1010.5
20220525075917 18 0 19.3 37.0 0.05 0.05 0.05 95 1010.0
20220525075402 21 344 12.9 29.0 0.00 0.00 0.00 89 1009.1
20220525074851 23 314 8.0 12.9 0.00 0.00 0.00 90 1008.9
20220525074343 23 205 3.2 11.3 0.00 0.00 0.00 90 1008.3
20220525073837 23 250 6.4 12.9 0.00 0.00 0.00 91 1008.8
20220525073330 23 10 9.7 12.9 0.00 0.00 0.00 91 1008.6
20220525072818 23 244 6.4 9.7 0.00 0.00 0.00 91 1008.0
20220525072313 23 287 3.2 6.4 0.00 0.00 0.00 91 1007.5
20220525071802 23 96 3.2 4.8 0.00 0.00 0.00 91 1007.3
20220525071257 23 103 0.0 4.8 0.00 0.00 0.00 91 1007.3
20220525070746 23 116 1.6 3.2 0.00 0.00 0.00 91 1007.4
20220525070227 23 217 3.2 3.2 0.00 0.00 0.00 91 1007.5
20220525065712 23 166 3.2 3.2 0.00 0.00 0.00 91 1007.6
20220525065200 23 95 1.6 4.8 0.00 0.00 0.00 92 1007.3
20220525064652 22 118 1.6 4.8 0.00 0.00 0.00 92 1007.2
20220525064147 22 135 0.0 4.8 0.00 0.00 0.00 92 1007.2
20220525063637 22 110 1.6 6.4 0.00 0.00 0.00 92 1007.1
20220525063118 22 218 3.2 6.4 0.00 0.00 0.00 92 1007.0
20220525062601 22 139 1.6 4.8 0.00 0.00 0.00 93 1006.9
20220525062051 22 154 1.6 6.4 0.00 0.00 0.00 93 1006.8
20220525061542 22 107 0.0 6.4 0.00 0.00 0.00 93 1006.7
20220525061034 22 101 0.0 3.2 0.00 0.00 0.00 93 1006.7
20220525060526 22 117 0.0 3.2 0.00 0.00 0.00 94 1006.7
20220525060011 22 105 1.6 3.2 0.00 0.00 0.00 94 1007.1
20220525055459 22 103 0.0 3.2 0.00 0.00 0.00 94 1006.8
20220525054951 22 106 0.0 3.2 0.00 0.00 0.00 94 1007.0
20220525054444 22 112 1.6 3.2 0.00 0.00 0.00 94 1006.9
20220525053936 22 104 0.0 3.2 0.00 0.00 0.00 93 1006.9
20220525053430 22 108 0.0 4.8 0.00 0.00 0.00 93 1007.1
20220525052910 22 118 0.0 4.8 0.00 0.00 0.00 93 1007.0
20220525052400 22 128 0.0 3.2 0.00 0.00 0.00 93 1007.1
20220525051856 22 79 1.6 4.8 0.00 0.00 0.00 93 1006.9
20220525051344 22 95 0.0 6.4 0.00 0.00 0.00 93 1006.9
20220525050837 22 127 1.6 6.4 0.00 0.00 0.00 94 1007.0
20220525050329 22 101 0.0 1.6 0.00 0.00 0.00 94 1006.7
20220525045820 22 94 0.0 4.8 0.00 0.00 0.00 93 1006.8
20220525045315 22 141 1.6 4.8 0.00 0.00 0.00 93 1007.0
20220525044805 22 101 0.0 3.2 0.00 0.00 0.00 93 1007.0
20220525044257 23 104 0.0 3.2 0.00 0.00 0.00 92 1007.5
20220525043749 23 88 0.0 3.2 0.00 0.00 0.00 92 1007.1
20220525043240 23 94 0.0 3.2 0.00 0.00 0.00 91 1007.3
20220525042735 23 99 0.0 3.2 0.00 0.00 0.00 91 1007.3
20220525042203 23 105 0.0 4.8 0.00 0.00 0.00 91 1007.4
20220525041653 23 115 0.0 4.8 0.00 0.00 0.00 90 1007.5
20220525041147 23 100 0.0 6.4 0.00 0.00 0.00 90 1007.3
20220525040645 23 146 0.0 9.7 0.00 0.00 0.00 89 1007.4
20220525040130 23 111 1.6 9.7 0.00 0.00 0.00 89 1007.0
20220525035625 23 105 0.0 11.3 0.00 0.00 0.00 89 1007.0
20220525035115 23 73 4.8 11.3 0.00 0.00 0.00 89 1007.2
20220525034607 23 218 3.2 11.3 0.00 0.00 0.00 89 1007.3
20220525034059 23 146 0.0 11.3 0.00 0.00 0.00 88 1007.1
20220525033551 23 143 1.6 9.7 0.00 0.00 0.00 88 1007.1
20220525033045 23 92 1.6 6.4 0.00 0.00 0.00 88 1007.1
20220525032524 23 77 1.6 6.4 0.00 0.00 0.00 88 1006.8
20220525032015 23 117 0.0 3.2 0.00 0.00 0.00 88 1006.6
20220525031508 23 131 0.0 3.2 0.00 0.00 0.00 88 1006.4
20220525030959 23 107 0.0 4.8 0.00 0.00 0.00 88 1006.5
20220525030452 23 129 3.2 4.8 0.00 0.00 0.00 88 1006.8
20220525025944 23 105 0.0 1.6 0.00 0.00 0.00 88 1006.4
20220525025435 23 105 0.0 1.6 0.00 0.00 0.00 87 1006.5
20220525024930 24 107 0.0 1.6 0.00 0.00 0.00 87 1006.5
20220525024400 24 107 0.0 1.6 0.00 0.00 0.00 86 1006.3
20220525023852 24 122 1.6 3.2 0.00 0.00 0.00 86 1006.3
20220525023342 24 105 0.0 3.2 0.00 0.00 0.00 85 1006.2
20220525022822 24 162 1.6 3.2 0.00 0.00 0.00 85 1005.9
20220525022317 25 155 1.6 4.8 0.00 0.00 0.00 84 1005.9
20220525021806 25 136 1.6 6.4 0.00 0.00 0.00 84 1005.8
20220525021258 25 192 3.2 6.4 0.00 0.00 0.00 83 1005.7
20220525020751 25 160 1.6 6.4 0.00 0.00 0.00 83 1005.8
20220525020243 25 195 3.2 4.8 0.00 0.00 0.00 83 1005.7
20220525015734 25 122 1.6 3.2 0.00 0.00 0.00 82 1005.1
20220525015226 25 110 0.0 4.8 0.00 0.00 0.00 81 1004.9
20220525014718 25 228 3.2 4.8 0.00 0.00 0.00 81 1005.2
20220525014211 25 102 3.2 4.8 0.00 0.00 0.00 81 1005.0
20220525013705 25 130 1.6 4.8 0.00 0.00 0.00 80 1004.9
20220525013154 25 163 1.6 4.8 0.00 0.00 0.00 79 1004.7
20220525012647 25 137 3.2 6.4 0.00 0.00 0.00 79 1004.7
20220525012131 25 127 1.6 6.4 0.00 0.00 0.00 78 1004.7
20220525011620 26 88 3.2 11.3 0.00 0.00 0.00 78 1004.4
20220525011100 26 170 0.0 11.3 0.00 0.00 0.00 78 1004.4
20220525010553 26 139 3.2 11.3 0.00 0.00 0.00 77 1004.5
20220525010048 26 126 0.0 11.3 0.00 0.00 0.00 77 1004.1
20220525005536 26 166 1.6 14.5 0.00 0.00 0.00 76 1004.2
20220525005030 26 214 6.4 9.7 0.00 0.00 0.00 76 1004.4
20220525004524 26 108 3.2 11.3 0.00 0.00 0.00 75 1004.0
20220525004012 26 154 3.2 11.3 0.00 0.00 0.00 75 1003.9
20220525003507 26 234 6.4 12.9 0.00 0.00 0.00 75 1004.1
20220525002957 26 95 3.2 12.9 0.00 0.00 0.00 76 1004.1
20220525002448 26 229 6.4 17.7 0.00 0.00 0.00 75 1004.2
20220525001941 26 293 8.0 17.7 0.00 0.00 0.00 75 1004.1
20220525001435 26 176 6.4 17.7 0.00 0.00 0.00 75 1004.2
20220525000925 27 148 4.8 14.5 0.00 0.00 0.00 75 1004.5
20220525000406 27 115 1.6 14.5 0.00 0.00 0.00 75 1004.1
20220524235857 27 155 3.2 16.1 0.00 0.00 0.00 74 1004.3
20220524235352 27 197 3.2 16.1 0.00 0.00 0.00 74 1004.3
20220524234842 27 281 6.4 14.5 0.00 0.00 0.00 73 1004.2
20220524234337 27 110 3.2 14.5 0.00 0.00 0.00 73 1004.7
20220524233815 27 197 4.8 14.5 0.00 0.00 0.00 73 1004.4
20220524233310 27 224 0.0 6.4 0.00 0.00 0.00 73 1004.7
20220524232748 27 176 1.6 6.4 0.00 0.00 0.00 73 1004.9
20220524232240 27 175 1.6 9.7 0.00 0.00 0.00 73 1004.7
20220524231734 27 276 4.8 9.7 0.00 0.00 0.00 72 1004.8
20220524231224 27 94 0.0 11.3 0.00 0.00 0.00 73 1004.9
20220524230718 27 126 3.2 12.9 0.00 0.00 0.00 73 1005.0
20220524230208 27 196 1.6 12.9 0.00 0.00 0.00 73 1005.3
20220524225659 28 243 8.0 20.9 0.00 0.00 0.00 71 1004.9
20220524225151 27 115 3.2 20.9 0.00 0.00 0.00 72 1005.1
20220524224644 28 182 1.6 11.3 0.00 0.00 0.00 72 1005.1
20220524224127 28 102 1.6 11.3 0.00 0.00 0.00 72 1005.2
20220524223605 28 166 4.8 12.9 0.00 0.00 0.00 73 1005.5
20220524223058 28 79 1.6 12.9 0.00 0.00 0.00 74 1005.6
20220524222553 28 106 1.6 11.3 0.00 0.00 0.00 75 1005.5
20220524222041 27 110 1.6 12.9 0.00 0.00 0.00 76 1005.5
20220524221536 27 100 1.6 12.9 0.00 0.00 0.00 77 1005.7
20220524221014 27 95 3.2 12.9 0.00 0.00 0.00 77 1005.7
20220524220510 27 97 0.0 12.9 0.00 0.00 0.00 79 1005.7
20220524215958 27 101 1.6 11.3 0.00 0.00 0.00 79 1005.7
20220524215451 27 83 3.2 6.4 0.00 0.00 0.00 77 1005.8
20220524214944 28 100 0.0 9.7 0.00 0.00 0.00 77 1005.8
20220524214437 28 94 1.6 11.3 0.00 0.00 0.00 76 1005.5
20220524213928 28 98 6.4 11.3 0.00 0.00 0.00 76 1005.6
20220524213418 27 135 3.2 17.7 0.00 0.00 0.00 78 1005.5
20220524212913 27 140 3.2 22.5 0.00 0.00 0.00 79 1005.9
20220524212402 27 81 4.8 24.1 0.00 0.00 0.00 80 1005.7
20220524211856 27 83 3.2 24.1 0.00 0.00 0.00 80 1005.7
20220524211346 28 57 6.4 16.1 0.00 0.00 0.00 78 1006.0
20220524210840 27 85 1.6 16.1 0.00 0.00 0.00 81 1005.8
20220524210328 27 99 1.6 33.8 0.00 0.00 0.00 81 1005.9
20220524205821 26 75 6.4 33.8 0.00 0.00 0.00 82 1006.2
20220524205313 27 76 3.2 17.7 0.00 0.00 0.00 81 1006.3
20220524204808 27 117 6.4 16.1 0.00 0.00 0.00 81 1006.1
20220524204249 27 100 6.4 17.7 0.00 0.00 0.00 82 1006.3
20220524203738 26 125 1.6 17.7 0.00 0.00 0.00 83 1006.3
20220524203230 27 70 8.0 11.3 0.00 0.00 0.00 82 1006.4
20220524202724 27 96 1.6 11.3 0.00 0.00 0.00 82 1006.4
20220524202214 27 93 0.0 9.7 0.00 0.00 0.00 81 1006.6
20220524201707 27 98 0.0 4.8 0.00 0.00 0.00 81 1006.5
20220524201202 27 46 1.6 4.8 0.00 0.00 0.00 81 1006.6
20220524200651 26 89 0.0 9.7 0.00 0.00 0.00 82 1006.6
20220524200144 26 85 1.6 9.7 0.00 0.00 0.00 84 1006.8
20220524195635 27 81 1.6 4.8 0.00 0.00 0.00 83 1006.9
20220524195127 26 89 0.0 4.8 0.00 0.00 0.00 83 1007.4
20220524194619 26 94 0.0 6.4 0.00 0.00 0.00 83 1007.5
20220524194110 26 97 0.0 6.4 0.00 0.00 0.00 84 1007.3
20220524193604 26 93 0.0 6.4 0.00 0.00 0.00 84 1007.2
20220524193054 26 93 1.6 9.7 0.00 0.00 0.00 84 1007.4
20220524192547 26 121 3.2 9.7 0.00 0.00 0.00 84 1007.6
20220524192042 26 100 0.0 6.4 0.00 0.00 0.00 84 1007.7
20220524191520 26 125 1.6 9.7 0.00 0.00 0.00 84 1007.7
20220524191014 26 110 1.6 9.7 0.00 0.00 0.00 84 1007.7
20220524190454 26 116 3.2 9.7 0.00 0.00 0.00 84 1007.8
20220524185944 26 98 3.2 6.4 0.00 0.00 0.00 84 1007.7
20220524185440 26 70 1.6 6.4 0.00 0.00 0.00 84 1007.9
20220524184929 26 100 1.6 4.8 0.00 0.00 0.00 83 1007.8
20220524184421 25 102 0.0 9.7 0.00 0.00 0.00 84 1007.8
20220524183902 25 264 3.2 9.7 0.00 0.00 0.00 84 1008.1
20220524183355 25 106 3.2 6.4 0.00 0.00 0.00 84 1008.0
20220524182848 25 98 0.0 6.4 0.00 0.00 0.00 85 1007.8
20220524182337 25 87 1.6 6.4 0.00 0.00 0.00 84 1007.9
20220524181829 25 91 0.0 4.8 0.00 0.00 0.00 85 1007.8
20220524181322 25 123 1.6 9.7 0.00 0.00 0.00 85 1008.1
20220524180814 24 88 1.6 9.7 0.00 0.00 0.00 86 1008.2
20220524180254 24 116 1.6 11.3 0.00 0.00 0.00 87 1008.2
20220524175747 24 110 1.6 12.9 0.00 0.00 0.00 86 1008.3
20220524175239 24 162 3.2 12.9 0.00 0.00 0.00 86 1008.1
20220524174720 24 117 4.8 6.4 0.00 0.00 0.00 87 1008.1
20220524174214 24 83 3.2 9.7 0.00 0.00 0.00 89 1007.9
20220524173652 23 95 3.2 9.7 0.00 0.00 0.00 89 1007.9
20220524173144 23 129 4.8 11.3 0.00 0.00 0.00 90 1008.1
20220524172636 23 167 3.2 12.9 0.00 0.00 0.00 91 1007.9
20220524172128 23 59 4.8 12.9 0.00 0.00 0.00 91 1008.0
20220524171620 22 95 1.6 12.9 0.00 0.00 0.00 92 1007.8
20220524171103 22 102 1.6 11.3 0.00 0.00 0.00 92 1007.7
20220524170545 22 126 1.6 6.4 0.00 0.00 0.00 92 1007.5
20220524170047 22 101 1.6 9.7 0.00 0.00 0.00 93 1007.4
20220524165527 22 104 3.2 9.7 0.00 0.00 0.00 94 1007.6
20220524165035 22 111 0.0 4.8 0.00 0.00 0.00 95 1007.9
20220524164522 22 83 1.6 4.8 0.00 0.00 0.00 95 1007.8
20220524164003 22 152 3.2 4.8 0.00 0.00 0.00 95 1007.7
20220524163455 22 112 0.0 4.8 0.00 0.00 0.00 95 1007.6
20220524162948 22 102 0.0 4.8 0.00 0.00 0.00 96 1007.7
20220524162439 21 101 1.6 12.9 0.00 0.00 0.00 96 1007.9
20220524161930 21 294 1.6 12.9 0.00 0.00 0.00 96 1007.9
20220524161422 21 112 6.4 16.1 0.00 0.00 0.00 96 1008.0
20220524160914 21 184 6.4 17.7 0.00 0.00 0.00 95 1008.2
20220524160409 21 152 6.4 20.9 0.00 0.00 0.00 94 1008.2
20220524155859 22 74 3.2 20.9 0.00 0.00 0.00 92 1008.2
20220524155351 25 99 1.6 6.4 0.00 0.00 0.00 93 1008.4
20220524154843 25 209 4.8 9.7 0.00 0.00 0.00 93 1008.2
20220524154337 25 207 6.4 9.7 0.00 0.00 0.00 93 1008.1
20220524153828 25 219 3.2 9.7 0.00 0.00 0.00 93 1008.0
20220524153319 25 129 1.6 4.8 0.00 0.00 0.00 93 1007.9
20220524152812 25 247 3.2 4.8 0.00 0.00 0.00 92 1008.1
20220524152302 25 220 3.2 4.8 0.00 0.00 0.00 92 1008.1
20220524151755 25 112 1.6 3.2 0.00 0.00 0.00 91 1008.1
20220524151250 25 158 1.6 3.2 0.00 0.00 0.00 91 1008.2
20220524150741 25 163 3.2 3.2 0.00 0.00 0.00 91 1007.8
20220524150244 25 91 1.6 3.2 0.00 0.00 0.00 91 1008.1
20220524145711 25 119 1.6 3.2 0.00 0.00 0.00 91 1008.2
20220524145206 25 131 1.6 3.2 0.00 0.00 0.00 91 1008.7
20220524144656 25 98 0.0 3.2 0.00 0.00 0.00 91 1008.5
20220524144149 25 100 0.0 3.2 0.00 0.00 0.00 91 1008.7
20220524143645 25 123 1.6 3.2 0.00 0.00 0.00 91 1008.6
20220524143137 25 113 1.6 3.2 0.00 0.00 0.00 90 1008.5
20220524142614 25 109 0.0 3.2 0.00 0.00 0.00 90 1008.9
20220524142054 25 96 0.0 3.2 0.00 0.00 0.00 90 1008.8
20220524141546 25 97 0.0 3.2 0.00 0.00 0.00 91 1008.8
20220524141041 25 99 0.0 3.2 0.00 0.00 0.00 91 1009.1
20220524140532 25 104 0.0 3.2 0.00 0.00 0.00 91 1009.3
20220524140022 25 116 1.6 3.2 0.00 0.00 0.00 91 1009.3
20220524135504 25 170 1.6 4.8 0.00 0.00 0.00 92 1009.3